{"data":{"norad_id":48434,"epoch":"2026-05-25T00:39:47.977632Z","epoch_age_seconds":86747,"freshness":"FRESH","line1":"1 48434U 21040G   26145.02763863  .00000549  00000+0  29466-4 0  9991","line2":"2 48434  53.1582 157.7268 0001099  76.1320 283.9804 15.31698436278730","mean_motion":15.31698436,"eccentricity":0.0001099,"inclination_deg":53.1582,"raan_deg":157.7268,"arg_perigee_deg":76.132,"mean_anomaly_deg":283.9804,"bstar":2.9466e-5,"rev_number":27873,"period_min":94.013283956895,"perigee_km":469.99196533808,"apogee_km":471.49734952638,"semimajor_km":6848.8816574322,"source":"CELESTRAK","updated_at":"2026-05-25T13:38:16.714665Z"}}